Regional Weather Roundup
Issued by NWS

Home | Current Version | Previous Version | Graphics & Text | Print | Product List | Glossary On
Versions: 1 2 3 4 5 6 7 8 9 10 11 12 13 14 15 16 17 18 19 20 21 22 23 24 25 26 27 28
000
ASUS45 KBOU 121810
RWRCO

WEATHER ROUNDUP FOR COLORADO
NATIONAL WEATHER SERVICE DENVER/BOULDER CO
1100 AM MST TUE DEC 12 2017

NOTE: "FAIR" INDICATES FEW OR NO CLOUDS BELOW 12000 FEET WITH NO
SIGNIFICANT WEATHER AND/OR OBSTRUCTIONS TO VISIBILITY.

COZ001>005-013-030-031-121900-
...NORTHWEST COLORADO...

CITY           SKY/WX    TMP DP  RH WIND       PRES   REMARKS
CRAIG          FAIR      28  16  60 CALM      30.53F
HAYDEN         FAIR      34  18  52 SE9       30.54F WCI  27
MEEKER         FAIR      39  18  42 CALM      30.51F
RABBIT EARS PA FAIR      32   9  37 W6        30.57F WCI  26
STEAMBOAT SPGS FAIR      29  16  59 CALM      30.53F
WALDEN         FAIR      30  14  51 SE6       30.52F WCI  24
$$

COZ006>008-011-121900-
...WEST CENTRAL VALLEYS...

CITY           SKY/WX    TMP DP  RH WIND       PRES   REMARKS
GRAND JUNCTION FAIR      43  10  26 SE6       30.52F
MONTROSE       FAIR      41   6  23 S3        30.54F
EAGLE          FAIR      25  12  58 CALM      30.61F
RIFLE          FAIR      40  13  33 VRB3      30.54F
DELTA          FAIR      38   8  29 NE3       30.53F
NUCLA            N/A     34   1  25 CALM      30.56
$$

COZ017>023-064>068-121900-
...SOUTHWEST COLORADO...

CITY           SKY/WX    TMP DP  RH WIND       PRES   REMARKS
DURANGO        FAIR      44   7  21 CALM      30.49F
CORTEZ         FAIR      43   2  18 S3        30.50F
PAGOSA SPRINGS FAIR      47  -3  13 CALM      30.51F
TELLURIDE      FAIR      47  -1  13 CALM      30.56F
WOLF CREEK PAS FAIR      37   0  20 CALM      30.68F
$$

COZ009-010-012-014-032>034-037-058>063-121900-
...CENTRAL COLORADO...

CITY           SKY/WX    TMP DP  RH WIND       PRES   REMARKS
ASPEN          FAIR      42  12  29 VRB3      30.51F
BUENA VISTA    FAIR      50   9  19 CALM      30.47F
COPPER MTN     NOT AVBL
BERTHOUD PASS  FAIR      23  12  63 NW24G30   30.59F WCI   7
COTTONWOOD PAS FAIR      50   7  17 SE6       30.53F
GUNNISON       FAIR      27   8  44 CALM      30.59F
KREMMLING      FAIR      23  14  68 CALM      30.61F
LEADVILLE        N/A     42   7  23 N5        30.53F
MONARCH PASS   FAIR      34   5  29 W14       30.72F WCI  24
SALIDA         FAIR      46  10  23 CALM      30.54F
SUNLIGHT       FAIR      34  12  40 NW3       30.64S
WILKERSON PASS FAIR      41   9  26 NW9       30.58F
$$

COZ069>075-121900-
...SAN LUIS VALLEY/SANGRE DE CRISTO MOUNTAINS...

CITY           SKY/WX    TMP DP  RH WIND       PRES   REMARKS
ALAMOSA        FAIR      39   4  23 CALM      30.51F
DEL NORTE      FAIR      39   4  23 E5        30.52F
LA VETA PASS   FAIR      36   5  27 SW15        N/A
SAGUACHE       FAIR      37   5  25 SE6       30.53F
$$

COZ035-036-038>040-121900-
...NORTHERN COLORADO FRONT RANGE...

CITY           SKY/WX    TMP DP  RH WIND       PRES   REMARKS
DENVER INTL AP FAIR      60  12  15 SW9       30.29F
DMNS CITY PARK NOT AVBL
AURORA         MOSUNNY   60  12  15 S7        30.31F
FRONT RANGE AP MOSUNNY   63  12  14 SW7       30.31F
ERIE MUNI ARPT FAIR      59  10  14 CALM      30.33F
BOULDER MUN AP FAIR      54  16  22 CALM      30.28F
CENTENNIAL     FAIR      59  15  18 SW5       30.31F
BROOMFIELD     MOSUNNY   55  12  18 VRB5      30.30F
FORT COLLINS   FAIR      50  15  24 CALM      30.30F
LONGMONT       FAIR      55  15  20 CALM      30.29F
$$

COZ041-046-047-076>085-087-088-121900-
...PIKES PEAK/PALMER DIVIDE AND SOUTHERN FOOTHILLS...

CITY           SKY/WX    TMP DP  RH WIND       PRES   REMARKS
COLO. SPRINGS  FAIR      55   7  14 S7        30.37F
A. F. ACADEMY  FAIR      55   5  13 S9        30.36F
SCHRIEVER AFB  FAIR      55   5  13 S7        30.36F
CHEYENNE MTN   FAIR      54   6  15 SE7       30.32F
ELLICOTT         N/A    N/A N/A N/A SW7       30.35F
FALCON         FAIR      55   4  12 SW12      30.38F
FORT CARSON    FAIR      56   7  14 CALM      30.34F
LIMON          FAIR      58  12  16 SW5       30.32F
MONUMENT HILL  FAIR      55  12  18 NW7       30.38F
CANON CITY     FAIR      61  14  16 W10       30.34F
WALSENBURG     FAIR      59   9  13 CALM      30.38F
TRINIDAD       FAIR      56   5  13 CALM      30.38F
$$

COZ042>045-048>051-090-091-121900-
...NORTHEAST COLORADO...

CITY           SKY/WX    TMP DP  RH WIND       PRES   REMARKS
GREELEY ARPT   FAIR      44  18  35 W3        30.30F
AKRON          FAIR     N/A N/A N/A MISG      30.27F
BURLINGTON     FAIR      59  17  19 NW13      30.28F
WRAY           FAIR      55  14  19 W9        30.25F
YUMA           FAIR      54  14  20 W16       30.25F
STERLING       FAIR      45  18  33 S8        30.25F
HOLYOKE        FAIR      61  18  18 NW8       30.24F
FORT MORGAN      N/A    N/A N/A N/A MISG        N/A
$$

COZ086-089-092>099-121900-
...SOUTHEAST COLORADO...

CITY           SKY/WX    TMP DP  RH WIND       PRES   REMARKS
PUEBLO         FAIR      50  10  20 W8        30.35F
LA JUNTA       FAIR      50   9  19 MISG      30.34F
LAMAR          FAIR      49   9  19 SW17      30.31F
SPRINGFIELD      N/A     59  10  14 W8        30.32F
$$




USA.gov is the U.S. government's official web portal to all federal, state and local government web resources and services.